Location: Staunton
(38.1490°N, 79.0720°W)
Time: 23:47:37
(UTC-04:00)

ISS - Pass Details

Date: 13 October 2018
Orbit: 403 x 408 km, 51.6° (Epoch: 21 October)

Event Time Altitude Azimuth Distance (km) Brightness Sun altitude
Rises 20:08:08 0° 292° (WNW) 2,331 1.4 -17.9°
Reaches altitude 10° 20:10:51 10° 268° (W) 1,466 0.3 -18.4°
Maximum altitude 20:12:49 15° 231° (SW) 1,201 -0.9 -18.8°
Drops below altitude 10° 20:14:45 10° 194° (SSW) 1,458 -0.9 -19.2°
Enters shadow 20:15:58 - 180° (S) 1,802 -0.6 -19.4°
